DM4SB-4 Weather Reports


time (UTC)temp
F
wind
direction
speed
knots
gust
knots
rain 1hr
in
rain 24hr
in
rain mn
in
humidity
%
barometer
mb
20260506014034 43 113 0.0 0.0 0.00 0.00 0.00 98 1005.0
20260506013034 42 113 0.0 0.0 0.00 0.00 0.00 98 1005.1
20260506012033 43 113 0.0 0.0 0.00 0.00 0.00 97 1004.9
20260506011033 44 113 0.0 0.0 0.00 0.00 0.00 97 1004.5
20260506010033 44 113 0.0 0.0 0.00 0.00 0.00 97 1004.5
20260506005033 43 112 0.0 0.0 0.00 0.00 0.00 97 1004.7
20260506004033 44 112 0.0 0.0 0.00 0.00 0.00 97 1004.6
20260506003033 45 112 0.0 0.0 0.00 0.00 0.00 97 1004.8
20260506002034 46 112 0.0 0.0 0.00 0.00 0.00 97 1004.9
20260506001034 46 113 0.0 0.0 0.00 0.00 0.00 96 1004.9
20260506000033 46 113 0.0 0.0 0.00 0.00 0.00 96 1005.1
20260505235033 48 113 0.0 0.0 0.00 0.00 0.00 96 1005.5
20260505234033 48 138 0.0 0.0 0.00 0.00 0.00 96 1005.5
20260505233033 48 139 0.0 0.0 0.00 0.00 0.00 96 1005.4
20260505232034 48 164 0.0 0.0 0.00 0.00 0.00 96 1005.6
20260505231034 48 141 0.0 0.0 0.00 0.00 0.00 96 1005.5
20260505230033 49 153 0.0 0.0 0.00 0.00 0.00 96 1005.7
20260505225033 48 140 0.0 0.0 0.00 0.00 0.00 96 1005.6
20260505224033 48 130 0.0 0.0 0.00 0.00 0.00 96 1005.7
20260505223033 47 110 0.0 0.0 0.00 0.00 0.00 96 1005.5
20260505222034 48 110 0.0 0.0 0.00 0.00 0.00 95 1005.7
20260505221034 48 110 0.0 0.0 0.00 0.00 0.00 95 1005.7
20260505220033 48 110 0.0 0.0 0.00 0.00 0.00 95 1005.5
20260505215033 48 112 0.0 0.0 0.00 0.00 0.07 95 1005.5
20260505214033 49 112 0.0 0.9 0.00 0.00 0.07 95 1005.4
20260505213033 50 129 0.0 0.0 0.00 0.00 0.07 95 1005.5
20260505212034 50 114 0.0 0.0 0.00 0.00 0.07 95 1005.5
20260505211033 50 113 0.0 0.0 0.00 0.00 0.07 95 1005.5
20260505210033 50 125 0.0 0.0 0.00 0.00 0.07 95 1005.6
20260505205033 50 108 0.0 0.0 0.00 0.00 0.07 95 1005.5
20260505204034 51 127 0.0 0.0 0.00 0.00 0.07 95 1005.5
20260505203034 50 127 0.0 0.0 0.00 0.00 0.07 95 1005.4
20260505202033 50 127 0.0 0.0 0.00 0.00 0.07 95 1005.4
20260505201033 51 127 0.0 0.0 0.00 0.00 0.07 94 1005.1
20260505200033 51 127 0.0 0.0 0.00 0.00 0.07 94 1005.0
20260505195033 52 126 0.0 0.0 0.00 0.00 0.07 94 1004.9
20260505194034 52 126 0.0 0.0 0.00 0.00 0.07 93 1005.0
20260505193034 52 126 0.0 0.0 0.00 0.00 0.07 93 1004.9
20260505192034 53 127 0.0 0.0 0.00 0.00 0.07 92 1004.8
20260505191033 53 104 0.0 0.0 0.00 0.00 0.07 91 1004.8
20260505190034 54 150 0.0 0.0 0.00 0.00 0.07 90 1004.7
20260505185033 54 261 0.0 0.0 0.00 0.00 0.07 89 1004.7
20260505184033 55 153 0.0 0.0 0.00 0.00 0.07 88 1004.6
20260505183033 55 159 0.0 0.9 0.00 0.00 0.07 87 1004.5
20260505180037 55 113 0.0 0.0 0.00 0.00 0.07 89 1004.4
20260505175034 55 112 0.0 0.0 0.00 0.00 0.07 88 1004.1
20260505174033 56 112 0.0 0.0 0.00 0.00 0.07 88 1004.1
20260505173033 57 112 0.0 0.0 0.00 0.00 0.07 88 1004.4
20260505172033 57 109 0.9 1.7 0.00 0.00 0.07 86 1004.3
20260505171033 58 119 0.0 0.0 0.00 0.00 0.07 86 1004.2
20260505170033 58 113 0.0 0.0 0.00 0.00 0.07 84 1004.3
20260505165034 58 117 0.0 0.0 0.00 0.00 0.07 86 1004.1
20260505164034 57 116 0.0 0.0 0.00 0.00 0.07 89 1004.4
20260505163033 57 147 0.0 1.7 0.00 0.00 0.07 86 1004.3
20260505162033 57 227 0.0 0.9 0.00 0.00 0.07 86 1004.2
20260505161033 56 151 0.0 1.7 0.00 0.00 0.07 86 1004.4
20260505153033 56 128 0.0 0.0 0.00 0.00 0.07 90 1004.7
20260505152033 55 145 0.0 1.7 0.00 0.00 0.07 89 1004.7
20260505151033 55 128 0.0 0.9 0.00 0.00 0.07 90 1004.6
20260505125033 67 105 0.0 0.0 0.00 0.00 0.00 62 1004.5
20260505124033 66 156 0.0 0.0 0.00 0.00 0.00 62 1004.5
20260505123034 66 119 0.0 1.7 0.00 0.00 0.00 60 1004.6
20260505122033 66 165 0.0 0.0 0.00 0.00 0.00 62 1004.4
20260505121033 67 109 0.0 0.0 0.00 0.00 0.00 62 1004.7
20260505120033 67 151 0.0 0.9 0.00 0.00 0.00 58 1004.5
20260505115033 68 107 0.0 0.9 0.00 0.00 0.00 55 1004.5
20260505114033 68 135 0.0 0.9 0.00 0.00 0.00 55 1004.4
20260505113033 68 143 0.0 0.0 0.00 0.00 0.00 55 1004.4
20260505112034 69 146 0.0 0.0 0.00 0.00 0.00 55 1004.3
20260505111034 69 149 0.0 0.0 0.00 0.00 0.00 54 1004.5
20260505102033 72 33 0.0 1.7 0.00 0.00 0.00 49 1005.0
20260505101034 73 193 0.0 0.9 0.00 0.00 0.00 49 1004.9
20260505100034 73 177 0.0 1.7 0.00 0.00 0.00 48 1005.1
20260505095033 70 218 0.0 0.9 0.00 0.00 0.00 49 1005.4
20260505094033 71 129 0.9 1.7 0.00 0.00 0.00 50 1005.3
20260505093033 71 204 0.0 0.0 0.00 0.00 0.00 52 1005.3
20260505092033 70 273 0.0 0.9 0.00 0.00 0.00 55 1005.4
20260505091033 71 357 0.0 0.0 0.00 0.00 0.00 58 1005.4
20260505090034 69 218 0.0 0.0 0.00 0.00 0.00 63 1005.5
20260505085034 67 232 0.0 0.0 0.00 0.00 0.00 65 1005.5
20260505084033 67 225 0.0 0.0 0.00 0.00 0.00 64 1005.6
20260505083033 66 227 0.0 0.0 0.00 0.00 0.00 69 1005.8
20260505082033 66 232 0.0 0.0 0.00 0.00 0.00 69 1005.7
20260505081034 65 228 0.0 0.0 0.00 0.00 0.00 70 1005.8
20260505080034 64 253 0.0 0.0 0.00 0.00 0.00 69 1005.7
20260505075033 65 227 0.0 0.9 0.00 0.00 0.00 66 1005.8
20260505074033 66 237 0.0 0.9 0.00 0.00 0.00 66 1006.1
20260505073033 65 323 0.0 0.9 0.00 0.00 0.00 65 1006.0
20260505072033 64 155 0.0 0.0 0.00 0.00 0.00 70 1006.1
20260505071034 65 134 0.0 0.9 0.00 0.00 0.00 71 1006.0
20260505070034 63 227 0.0 0.9 0.00 0.00 0.00 74 1006.2
20260505065033 62 223 0.0 0.0 0.00 0.00 0.00 79 1006.2
20260505064033 61 223 0.0 0.0 0.00 0.00 0.00 78 1006.1
20260505063033 60 223 0.0 0.0 0.00 0.00 0.00 78 1006.3
20260505062034 59 220 0.0 0.9 0.00 0.00 0.00 82 1006.2
20260505061034 57 216 0.0 0.0 0.00 0.00 0.00 86 1006.3
20260505060033 54 216 0.0 0.0 0.00 0.00 0.00 88 1006.3
20260505055033 51 211 0.0 0.0 0.00 0.00 0.00 95 1006.6
20260505054033 50 187 0.0 0.0 0.00 0.00 0.00 97 1006.5
20260505053033 49 187 0.0 0.0 0.00 0.00 0.00 97 1006.6
20260505052034 47 187 0.0 0.0 0.00 0.00 0.00 97 1006.6
20260505051034 47 144 0.0 0.0 0.00 0.00 0.00 98 1006.4
20260505041033 44 108 0.0 0.0 0.00 0.00 0.00 97 1006.6
20260505040033 43 109 0.0 0.0 0.00 0.00 0.00 97 1006.6
20260505035033 43 109 0.0 0.0 0.00 0.00 0.00 97 1006.6
20260505034034 44 109 0.0 0.0 0.00 0.00 0.00 97 1006.7
20260505033033 45 109 0.0 0.0 0.00 0.00 0.00 97 1007.0
20260505032033 45 109 0.0 0.0 0.00 0.00 0.00 97 1007.1
20260505031033 45 109 0.0 0.0 0.00 0.00 0.00 96 1007.2
20260505030033 45 109 0.0 0.0 0.00 0.00 0.00 96 1007.4
20260505025033 45 109 0.0 0.0 0.00 0.00 0.00 96 1007.5
20260505024034 45 109 0.0 0.0 0.00 0.00 0.00 96 1007.6
20260505023034 45 120 0.0 0.0 0.00 0.00 0.00 96 1007.6
20260505022033 46 122 0.0 0.0 0.00 0.00 0.00 95 1007.7
20260505021034 45 122 0.0 0.0 0.00 0.00 0.00 95 1007.9
20260505020034 47 122 0.0 0.0 0.00 0.00 0.00 95 1008.0
20260505015034 47 123 0.0 0.0 0.00 0.00 0.00 95 1007.8